Вернуться в каталог

STARLINK-1557

АктивенСвязьVLEO
NORAD 46034·PAYLOAD·🇺🇸 United States

Запущен Aug 7, 2020 с Cape Canaveral Space Force Station

Loading…

Ближайшие Пролёты (ближайшие 24 часа)

TLE

СвежийSource: CelesTrak SupGP

Эпоха: Sep 15, 2026, 00:58 UTC

1 46034C 20055H   26258.04076389  .00046202  00000+0  14854-2 0  2584
2 46034  53.1586 326.2863 0001052 100.3199  58.7261 15.31687459    17

Отслеживайте STARLINK-1557 в реальном времени с AllMySat

Download on the App Store